This is the latest recevied weather packets stored in our database for station/object K4DFD-13. If no packets are shown the sender has not sent any weather packets the latest 1 day(s).
| Time | Temp. | Humidity | Pressure | Rain* | Wind** | Luminosity | Snow |
|---|---|---|---|---|---|---|---|
| 1777996572 | 21.67° C | 43% | 1016 hPa | 0 mm | 1.34 m/s, 278° | - | - |
| 1777996292 | 21.67° C | 43% | 1016.1 hPa | 0 mm | 2.68 m/s, 229° | - | - |
| 1777995971 | 21.67° C | 42% | 1016 hPa | 0 mm | 3.13 m/s, 274° | - | - |
| 1777995671 | 21.67° C | 43% | 1016.2 hPa | 0 mm | 2.68 m/s, 218° | - | - |
| 1777995374 | 21.67° C | 42% | 1016.2 hPa | 0 mm | 3.13 m/s, 218° | - | - |
| 1777995069 | 21.11° C | 43% | 1016.3 hPa | 0 mm | 2.68 m/s, 240° | - | - |
| 1777994776 | 21.11° C | 44% | 1016.4 hPa | 0 mm | 3.13 m/s, 207° | - | - |
| 1777994469 | 21.67° C | 43% | 1016.3 hPa | 0 mm | 2.68 m/s, 203° | - | - |
| 1777994188 | 21.67° C | 44% | 1016.3 hPa | 0 mm | 2.24 m/s, 224° | - | - |
| 1777993868 | 21.11° C | 45% | 1016.3 hPa | 0 mm | 0.89 m/s, 315° | - | - |
| 1777993574 | 21.11° C | 45% | 1016.4 hPa | 0 mm | 3.13 m/s, 231° | - | - |
| 1777993274 | 21.11° C | 43% | 1016.3 hPa | 0 mm | 3.13 m/s, 209° | - | - |
| 1777992971 | 20.56° C | 45% | 1016.3 hPa | 0 mm | 2.68 m/s, 234° | - | - |
| 1777992666 | 20.56° C | 46% | 1016.4 hPa | 0 mm | 1.79 m/s, 257° | - | - |
| 1777992365 | 20.56° C | 47% | 1016.4 hPa | 0 mm | 1.79 m/s, 265° | - | - |
| 1777992064 | 20° C | 47% | 1016.4 hPa | 0 mm | 3.13 m/s, 267° | - | - |
| 1777991767 | 20° C | 49% | 1016.4 hPa | 0 mm | 1.79 m/s, 282° | - | - |
| 1777991484 | 20° C | 49% | 1016.2 hPa | 0 mm | 1.34 m/s, 298° | - | - |
| 1777991170 | 20° C | 50% | 1016.3 hPa | 0 mm | 2.24 m/s, 280° | - | - |
| 1777990870 | 20° C | 50% | 1016.2 hPa | 0 mm | 2.68 m/s, 222° | - | - |
| 1777990562 | 19.44° C | 51% | 1016.1 hPa | 0 mm | 1.34 m/s, 175° | - | - |
| 1777990263 | 19.44° C | 52% | 1016.2 hPa | 0 mm | 0.89 m/s, 216° | - | - |
| 1777989961 | 19.44° C | 52% | 1016.2 hPa | 0 mm | 1.79 m/s, 250° | - | - |
| 1777989661 | 19.44° C | 51% | 1016.2 hPa | 0 mm | 1.34 m/s, 198° | - | - |
| 1777989360 | 19.44° C | 52% | 1016.2 hPa | 0 mm | 0.45 m/s, 260° | - | - |
* Rain latest hour (hover to see other rain measurements)
** Current wind speed in m/s (hover to see current wind gust speed)